Wetterdaten: Sonntag, 28.04.2013
Datum Zeit Temperatur Luftfeuchte Luftdruck Regen Wind Richtung Richtung Taupunkt Windchill Windben
28.04.2013 00:00 6,3 C 95 % 1008,1 hPa 0,0 l/m 5,5 km/h (1 Bft) SW 225 5,6 C 5,3 C 4,5 km/h (1 Bft)
28.04.2013 00:05 6,3 C 95 % 1008,4 hPa 0,0 l/m 5,5 km/h (1 Bft) S-SO 157 5,6 C 5,2 C 6,0 km/h (2 Bft)
28.04.2013 00:10 6,2 C 95 % 1008,4 hPa 0,0 l/m 6,3 km/h (2 Bft) S-SW 202 5,5 C 4,9 C 8,5 km/h (2 Bft)
28.04.2013 00:15 6,3 C 95 % 1008,4 hPa 0,0 l/m 6,9 km/h (2 Bft) SW 225 5,6 C 4,3 C 9,8 km/h (2 Bft)
28.04.2013 00:20 6,2 C 95 % 1008,4 hPa 0,0 l/m 6,4 km/h (2 Bft) S-SW 202 5,5 C 4,8 C 12,7 km/h (3 Bft)
28.04.2013 00:25 6,2 C 95 % 1008,7 hPa 0,0 l/m 5,6 km/h (1 Bft) S 180 5,5 C 5,1 C 5,3 km/h (1 Bft)
28.04.2013 00:30 6,1 C 95 % 1008,7 hPa 0,0 l/m 5,1 km/h (1 Bft) S 180 5,4 C 5,2 C 7,7 km/h (2 Bft)
28.04.2013 00:35 6,1 C 95 % 1008,7 hPa 0,0 l/m 5,3 km/h (1 Bft) S 180 5,4 C 5,1 C 4,3 km/h (1 Bft)
28.04.2013 00:40 6,1 C 95 % 1008,7 hPa 0,0 l/m 5,3 km/h (1 Bft) S 180 5,4 C 5,1 C 10,0 km/h (2 Bft)
28.04.2013 00:45 6,0 C 95 % 1009,2 hPa 0,0 l/m 6,3 km/h (2 Bft) W-SW 247 5,3 C 4,6 C 8,2 km/h (2 Bft)
28.04.2013 00:50 6,0 C 94 % 1009,2 hPa 0,0 l/m 7,7 km/h (2 Bft) S 180 5,1 C 2,9 C 14,0 km/h (3 Bft)
28.04.2013 00:55 5,9 C 96 % 1009,2 hPa 0,0 l/m 7,1 km/h (2 Bft) S-SW 202 5,3 C 3,7 C 10,6 km/h (2 Bft)
28.04.2013 01:00 5,9 C 95 % 1009,2 hPa 0,0 l/m 7,4 km/h (2 Bft) S 180 5,2 C 3,3 C 6,8 km/h (2 Bft)
28.04.2013 01:05 5,9 C 95 % 1009,4 hPa 0,0 l/m 7,4 km/h (2 Bft) S 180 5,2 C 3,3 C 6,6 km/h (2 Bft)
28.04.2013 01:10 5,8 C 95 % 1009,4 hPa 0,0 l/m 7,1 km/h (2 Bft) S 180 5,1 C 3,6 C 8,9 km/h (2 Bft)
28.04.2013 01:15 5,7 C 95 % 1009,4 hPa 0,0 l/m 6,3 km/h (2 Bft) S 180 5,0 C 4,3 C 5,5 km/h (1 Bft)
28.04.2013 01:20 5,8 C 95 % 1009,4 hPa 0,0 l/m 5,0 km/h (1 Bft) S 180 5,1 C 4,8 C 5,6 km/h (1 Bft)
28.04.2013 01:25 5,7 C 95 % 1009,6 hPa 0,0 l/m 4,7 km/h (1 Bft) S-SW 202 5,0 C 4,8 C 8,2 km/h (2 Bft)
28.04.2013 01:30 5,6 C 95 % 1009,6 hPa 0,0 l/m 5,6 km/h (1 Bft) S-SW 202 4,9 C 4,3 C 10,1 km/h (2 Bft)
28.04.2013 01:35 5,5 C 95 % 1009,6 hPa 0,0 l/m 6,3 km/h (2 Bft) W-SW 247 4,8 C 4,1 C 10,0 km/h (2 Bft)
28.04.2013 01:40 5,5 C 95 % 1009,6 hPa 0,0 l/m 6,9 km/h (2 Bft) S 180 4,8 C 3,4 C 7,1 km/h (2 Bft)
28.04.2013 01:45 5,5 C 95 % 1009,9 hPa 0,0 l/m 7,6 km/h (2 Bft) SW 225 4,8 C 2,5 C 9,8 km/h (2 Bft)
28.04.2013 01:50 5,4 C 95 % 1009,9 hPa 0,0 l/m 6,9 km/h (2 Bft) W-SW 247 4,7 C 3,2 C 5,0 km/h (1 Bft)
28.04.2013 01:55 5,4 C 95 % 1009,9 hPa 0,0 l/m 6,3 km/h (2 Bft) S-SW 202 4,7 C 3,9 C 2,6 km/h (1 Bft)
28.04.2013 02:00 5,4 C 95 % 1009,9 hPa 0,0 l/m 4,2 km/h (1 Bft) S-SO 157 4,7 C 4,7 C 3,9 km/h (1 Bft)
28.04.2013 02:05 5,4 C 95 % 1009,8 hPa 0,0 l/m 3,4 km/h (1 Bft) S-SW 202 4,7 C 5,1 C 3,7 km/h (1 Bft)
28.04.2013 02:10 5,4 C 95 % 1009,8 hPa 0,0 l/m 3,9 km/h (1 Bft) SO 135 4,7 C 4,8 C 3,9 km/h (1 Bft)
28.04.2013 02:15 5,4 C 95 % 1009,8 hPa 0,7 l/m 3,2 km/h (1 Bft) S-SW 202 4,7 C 5,2 C 3,1 km/h (1 Bft)
28.04.2013 02:20 5,4 C 95 % 1009,8 hPa 0,0 l/m 2,9 km/h (1 Bft) W-SW 247 4,7 C 5,2 C 3,9 km/h (1 Bft)
28.04.2013 02:25 5,3 C 95 % 1010,0 hPa 0,0 l/m 3,9 km/h (1 Bft) S 180 4,6 C 4,8 C 5,0 km/h (1 Bft)
28.04.2013 02:30 5,2 C 95 % 1010,0 hPa 0,0 l/m 5,5 km/h (1 Bft) S 180 4,5 C 4,0 C 6,9 km/h (2 Bft)
28.04.2013 02:35 5,2 C 95 % 1010,0 hPa 0,0 l/m 5,6 km/h (1 Bft) S 180 4,5 C 3,9 C 6,1 km/h (2 Bft)
28.04.2013 02:40 5,1 C 95 % 1010,0 hPa 0,0 l/m 5,5 km/h (1 Bft) S 180 4,4 C 3,9 C 6,3 km/h (2 Bft)
28.04.2013 02:45 5,1 C 95 % 1010,1 hPa 0,0 l/m 5,1 km/h (1 Bft) W-SW 247 4,4 C 3,9 C 4,3 km/h (1 Bft)
28.04.2013 02:50 5,1 C 95 % 1010,1 hPa 0,0 l/m 4,0 km/h (1 Bft) W-SW 247 4,4 C 4,3 C 6,3 km/h (2 Bft)
28.04.2013 02:55 5,1 C 95 % 1010,1 hPa 0,0 l/m 3,4 km/h (1 Bft) S-SW 202 4,4 C 4,7 C 5,8 km/h (2 Bft)
28.04.2013 03:00 5,0 C 95 % 1010,1 hPa 0,0 l/m 4,3 km/h (1 Bft) S-SW 202 4,3 C 4,1 C 7,1 km/h (2 Bft)
28.04.2013 03:05 4,9 C 96 % 1010,3 hPa 0,0 l/m 4,7 km/h (1 Bft) SW 225 4,3 C 3,9 C 5,5 km/h (1 Bft)
28.04.2013 03:10 4,9 C 96 % 1010,3 hPa 0,0 l/m 4,3 km/h (1 Bft) S 180 4,3 C 3,9 C 6,8 km/h (2 Bft)
28.04.2013 03:15 4,8 C 96 % 1010,3 hPa 0,0 l/m 3,5 km/h (1 Bft) S-SO 157 4,2 C 4,3 C 6,0 km/h (2 Bft)
28.04.2013 03:20 4,8 C 96 % 1010,3 hPa 0,0 l/m 3,9 km/h (1 Bft) S-SW 202 4,2 C 4,2 C 6,1 km/h (2 Bft)
28.04.2013 03:25 4,8 C 96 % 1010,4 hPa 0,0 l/m 4,0 km/h (1 Bft) S 180 4,2 C 3,9 C 2,6 km/h (1 Bft)
28.04.2013 03:30 4,8 C 96 % 1010,4 hPa 0,0 l/m 3,7 km/h (1 Bft) S 180 4,2 C 4,1 C 4,5 km/h (1 Bft)
28.04.2013 03:35 4,8 C 96 % 1010,4 hPa 0,0 l/m 3,2 km/h (1 Bft) S-SW 202 4,2 C 4,3 C 3,1 km/h (1 Bft)
28.04.2013 03:40 4,8 C 96 % 1010,4 hPa 0,0 l/m 3,9 km/h (1 Bft) S 180 4,2 C 4,0 C 5,5 km/h (1 Bft)
28.04.2013 03:45 4,8 C 96 % 1010,4 hPa 0,0 l/m 3,7 km/h (1 Bft) S-SW 202 4,2 C 4,1 C 5,8 km/h (2 Bft)
28.04.2013 03:50 4,7 C 96 % 1010,4 hPa 0,0 l/m 3,5 km/h (1 Bft) S 180 4,1 C 4,2 C 6,0 km/h (2 Bft)
28.04.2013 03:55 4,6 C 96 % 1010,4 hPa 0,0 l/m 3,7 km/h (1 Bft) S 180 4,0 C 4,0 C 2,4 km/h (1 Bft)
28.04.2013 04:00 4,6 C 96 % 1010,4 hPa 0,0 l/m 3,5 km/h (1 Bft) S 180 4,0 C 3,9 C 2,7 km/h (1 Bft)
28.04.2013 04:05 4,6 C 96 % 1010,8 hPa 0,0 l/m 3,5 km/h (1 Bft) S 180 4,0 C 3,9 C 3,5 km/h (1 Bft)
28.04.2013 04:10 4,5 C 96 % 1010,8 hPa 0,0 l/m 3,7 km/h (1 Bft) S 180 3,9 C 3,8 C 1,8 km/h (1 Bft)
28.04.2013 04:15 4,5 C 96 % 1010,8 hPa 0,0 l/m 2,7 km/h (1 Bft) S 180 3,9 C 4,2 C 0,0 km/h (0 Bft)
28.04.2013 04:20 4,5 C 96 % 1010,8 hPa 0,0 l/m 2,3 km/h (1 Bft) O-NO 67 3,9 C 4,2 C 4,7 km/h (1 Bft)
28.04.2013 04:25 4,5 C 96 % 1010,7 hPa 0,0 l/m 1,9 km/h (1 Bft) S 180 3,9 C 4,1 C 2,9 km/h (1 Bft)
28.04.2013 04:30 4,6 C 96 % 1010,7 hPa 0,0 l/m 2,6 km/h (1 Bft) S 180 4,0 C 4,2 C 1,9 km/h (1 Bft)
28.04.2013 04:35 4,5 C 96 % 1010,7 hPa 0,0 l/m 2,7 km/h (1 Bft) S 180 3,9 C 4,2 C 3,1 km/h (1 Bft)
28.04.2013 04:40 4,5 C 96 % 1010,7 hPa 0,0 l/m 2,3 km/h (1 Bft) S 180 3,9 C 4,1 C 2,6 km/h (1 Bft)
28.04.2013 04:45 4,5 C 96 % 1010,9 hPa 0,0 l/m 2,1 km/h (1 Bft) W-SW 247 3,9 C 4,1 C 2,9 km/h (1 Bft)
28.04.2013 04:50 4,5 C 96 % 1010,9 hPa 0,0 l/m 1,4 km/h (1 Bft) S 180 3,9 C 4,1 C 0,0 km/h (0 Bft)
28.04.2013 04:55 4,5 C 96 % 1010,9 hPa 0,0 l/m 1,3 km/h (1 Bft) W-SW 247 3,9 C 4,1 C 2,9 km/h (1 Bft)
28.04.2013 05:00 4,6 C 96 % 1010,9 hPa 0,0 l/m 0,8 km/h (0 Bft) W-SW 247 4,0 C 4,2 C 0,0 km/h (0 Bft)
28.04.2013 05:05 4,6 C 96 % 1010,6 hPa 0,0 l/m 0,8 km/h (0 Bft) W-SW 247 4,0 C 4,3 C 2,6 km/h (1 Bft)
28.04.2013 05:10 4,7 C 96 % 1010,6 hPa 0,0 l/m 0,6 km/h (0 Bft) S 180 4,1 C 4,4 C 2,1 km/h (1 Bft)
28.04.2013 05:15 4,7 C 96 % 1010,6 hPa 0,0 l/m 1,0 km/h (0 Bft) O 90 4,1 C 4,4 C 0,0 km/h (0 Bft)
28.04.2013 05:20 4,6 C 96 % 1010,6 hPa 0,0 l/m 1,1 km/h (1 Bft) S-SW 202 4,0 C 4,4 C 0,0 km/h (0 Bft)
28.04.2013 05:25 4,6 C 96 % 1011,2 hPa 0,0 l/m 0,8 km/h (0 Bft) S 180 4,0 C 4,4 C 0,0 km/h (0 Bft)
28.04.2013 05:30 4,6 C 96 % 1011,2 hPa 0,0 l/m 1,0 km/h (0 Bft) S 180 4,0 C 4,4 C 5,3 km/h (1 Bft)
28.04.2013 05:35 4,6 C 96 % 1011,2 hPa 0,0 l/m 1,6 km/h (1 Bft) S 180 4,0 C 4,4 C 1,6 km/h (1 Bft)
28.04.2013 05:40 4,5 C 96 % 1011,2 hPa 0,0 l/m 2,4 km/h (1 Bft) S 180 3,9 C 4,4 C 3,7 km/h (1 Bft)
28.04.2013 05:45 4,6 C 96 % 1010,9 hPa 0,0 l/m 1,9 km/h (1 Bft) S-SO 157 4,0 C 4,4 C 1,9 km/h (1 Bft)
28.04.2013 05:50 4,5 C 96 % 1010,9 hPa 0,0 l/m 1,4 km/h (1 Bft) S 180 3,9 C 4,4 C 0,0 km/h (0 Bft)
28.04.2013 05:55 4,5 C 96 % 1010,9 hPa 0,0 l/m 1,6 km/h (1 Bft) S-SW 202 3,9 C 4,4 C 3,2 km/h (1 Bft)
28.04.2013 06:00 4,5 C 96 % 1010,9 hPa 0,0 l/m 1,9 km/h (1 Bft) S 180 3,9 C 4,4 C 2,4 km/h (1 Bft)
28.04.2013 06:05 4,5 C 96 % 1011,2 hPa 0,0 l/m 1,6 km/h (1 Bft) S-SW 202 3,9 C 4,4 C 0,0 km/h (0 Bft)
28.04.2013 06:10 4,6 C 96 % 1011,2 hPa 0,0 l/m 0,8 km/h (0 Bft) W-SW 247 4,0 C 4,4 C 0,0 km/h (0 Bft)
28.04.2013 06:15 4,5 C 96 % 1011,2 hPa 0,0 l/m 1,1 km/h (1 Bft) SW 225 3,9 C 4,4 C 3,2 km/h (1 Bft)
28.04.2013 06:20 4,5 C 96 % 1011,2 hPa 0,0 l/m 1,8 km/h (1 Bft) S-SW 202 3,9 C 4,4 C 3,5 km/h (1 Bft)
28.04.2013 06:25 4,6 C 96 % 1011,8 hPa 0,0 l/m 1,6 km/h (1 Bft) W 270 4,0 C 4,4 C 0,0 km/h (0 Bft)
28.04.2013 06:30 4,6 C 96 % 1011,8 hPa 0,0 l/m 1,4 km/h (1 Bft) W-SW 247 4,0 C 4,4 C 2,1 km/h (1 Bft)
28.04.2013 06:35 4,6 C 96 % 1011,8 hPa 0,0 l/m 1,0 km/h (0 Bft) S 180 4,0 C 4,5 C 0,0 km/h (0 Bft)
28.04.2013 06:40 4,7 C 96 % 1011,8 hPa 0,0 l/m 0,2 km/h (0 Bft) S 180 4,1 C 4,6 C 0,0 km/h (0 Bft)
28.04.2013 06:45 4,7 C 96 % 1012,7 hPa 0,0 l/m 0,0 km/h (0 Bft) W-NW 292 4,1 C 4,6 C 0,0 km/h (0 Bft)
28.04.2013 06:50 4,7 C 96 % 1012,7 hPa 0,0 l/m 0,2 km/h (0 Bft) S-SW 202 4,1 C 4,7 C 2,3 km/h (1 Bft)
28.04.2013 06:55 4,7 C 96 % 1012,7 hPa 0,0 l/m 0,8 km/h (0 Bft) S-SW 202 4,1 C 4,6 C 2,6 km/h (1 Bft)
28.04.2013 07:00 4,7 C 96 % 1012,7 hPa 0,0 l/m 1,6 km/h (1 Bft) S 180 4,1 C 4,6 C 3,2 km/h (1 Bft)
28.04.2013 07:05 4,8 C 96 % 1012,9 hPa 0,0 l/m 2,1 km/h (1 Bft) S-SW 202 4,2 C 4,6 C 2,7 km/h (1 Bft)
28.04.2013 07:10 4,7 C 96 % 1012,9 hPa 0,0 l/m 2,6 km/h (1 Bft) S 180 4,1 C 4,6 C 2,9 km/h (1 Bft)
28.04.2013 07:15 4,7 C 96 % 1012,9 hPa 0,0 l/m 2,6 km/h (1 Bft) S 180 4,1 C 4,5 C 0,0 km/h (0 Bft)
28.04.2013 07:20 4,7 C 96 % 1012,9 hPa 0,0 l/m 2,7 km/h (1 Bft) S 180 4,1 C 4,5 C 4,8 km/h (1 Bft)
28.04.2013 07:25 4,7 C 96 % 1012,9 hPa 0,0 l/m 2,4 km/h (1 Bft) S-SW 202 4,1 C 4,5 C 2,6 km/h (1 Bft)
28.04.2013 07:30 4,8 C 96 % 1012,9 hPa 0,0 l/m 2,3 km/h (1 Bft) S 180 4,2 C 4,6 C 4,3 km/h (1 Bft)
28.04.2013 07:35 5,0 C 96 % 1012,9 hPa 0,0 l/m 1,9 km/h (1 Bft) W-SW 247 4,4 C 4,8 C 0,0 km/h (0 Bft)
28.04.2013 07:40 5,0 C 96 % 1012,9 hPa 0,0 l/m 1,8 km/h (1 Bft) W-SW 247 4,4 C 5,0 C 2,1 km/h (1 Bft)
28.04.2013 07:45 5,0 C 96 % 1012,9 hPa 0,0 l/m 1,6 km/h (1 Bft) W-SW 247 4,4 C 5,0 C 2,6 km/h (1 Bft)
28.04.2013 07:50 4,9 C 96 % 1012,9 hPa 0,0 l/m 2,6 km/h (1 Bft) S 180 4,3 C 4,9 C 4,0 km/h (1 Bft)
28.04.2013 07:55 4,9 C 96 % 1012,9 hPa 0,0 l/m 2,7 km/h (1 Bft) S-SW 202 4,3 C 4,8 C 0,0 km/h (0 Bft)
28.04.2013 08:00 5,1 C 96 % 1012,9 hPa 0,0 l/m 2,4 km/h (1 Bft) S-SW 202 4,5 C 5,1 C 0,0 km/h (0 Bft)
28.04.2013 08:05 5,1 C 96 % 1013,1 hPa 0,0 l/m 1,6 km/h (1 Bft) S-SW 202 4,5 C 5,1 C 3,2 km/h (1 Bft)
28.04.2013 08:10 5,4 C 95 % 1013,1 hPa 0,0 l/m 1,4 km/h (1 Bft) S-SW 202 4,7 C 5,4 C 1,8 km/h (1 Bft)
28.04.2013 08:15 5,5 C 95 % 1013,1 hPa 0,0 l/m 1,4 km/h (1 Bft) S-SW 202 4,8 C 5,6 C 1,9 km/h (1 Bft)
28.04.2013 08:20 5,7 C 95 % 1013,1 hPa 0,0 l/m 1,0 km/h (0 Bft) S-SW 202 5,0 C 6,1 C 0,0 km/h (0 Bft)
28.04.2013 08:25 5,9 C 95 % 1013,5 hPa 0,0 l/m 0,8 km/h (0 Bft) S 180 5,2 C 6,3 C 1,9 km/h (1 Bft)
28.04.2013 08:30 5,9 C 95 % 1013,5 hPa 0,0 l/m 1,3 km/h (1 Bft) W-SW 247 5,2 C 6,6 C 3,2 km/h (1 Bft)
28.04.2013 08:35 5,9 C 95 % 1013,5 hPa 0,0 l/m 1,9 km/h (1 Bft) S 180 5,2 C 6,5 C 0,0 km/h (0 Bft)
28.04.2013 08:40 6,0 C 93 % 1013,5 hPa 0,0 l/m 1,0 km/h (0 Bft) S 180 5,0 C 6,9 C 1,6 km/h (1 Bft)
28.04.2013 08:45 6,3 C 93 % 1013,8 hPa 0,0 l/m 0,5 km/h (0 Bft) S 180 5,3 C 7,1 C 0,0 km/h (0 Bft)
28.04.2013 08:50 6,6 C 93 % 1013,8 hPa 0,0 l/m 0,5 km/h (0 Bft) W 270 5,6 C 7,4 C 2,4 km/h (1 Bft)
28.04.2013 08:55 6,5 C 93 % 1013,8 hPa 0,0 l/m 1,3 km/h (1 Bft) N 360 5,5 C 7,5 C 3,5 km/h (1 Bft)
28.04.2013 09:00 6,4 C 92 % 1013,8 hPa 0,0 l/m 2,7 km/h (1 Bft) W-NW 292 5,2 C 7,6 C 4,3 km/h (1 Bft)
28.04.2013 09:05 6,3 C 91 % 1013,8 hPa 0,0 l/m 2,9 km/h (1 Bft) W-SW 247 4,9 C 7,3 C 5,0 km/h (1 Bft)
28.04.2013 09:10 6,5 C 90 % 1013,8 hPa 0,0 l/m 3,1 km/h (1 Bft) N-NW 337 5,0 C 7,3 C 5,0 km/h (1 Bft)
28.04.2013 09:15 6,6 C 90 % 1013,8 hPa 0,0 l/m 2,6 km/h (1 Bft) W-NW 292 5,1 C 7,5 C 0,0 km/h (0 Bft)
28.04.2013 09:20 6,5 C 87 % 1013,8 hPa 0,0 l/m 3,5 km/h (1 Bft) W-SW 247 4,5 C 7,7 C 4,5 km/h (1 Bft)
28.04.2013 09:25 6,7 C 87 % 1013,8 hPa 0,0 l/m 3,7 km/h (1 Bft) N 360 4,7 C 7,7 C 2,7 km/h (1 Bft)
28.04.2013 09:30 6,9 C 86 % 1013,8 hPa 0,0 l/m 3,9 km/h (1 Bft) W 270 4,7 C 7,8 C 7,6 km/h (2 Bft)
28.04.2013 09:35 6,8 C 87 % 1013,8 hPa 0,0 l/m 4,0 km/h (1 Bft) N-NW 337 4,8 C 7,6 C 2,6 km/h (1 Bft)
28.04.2013 09:40 6,7 C 84 % 1013,8 hPa 0,0 l/m 3,5 km/h (1 Bft) N-NW 337 4,2 C 7,9 C 0,0 km/h (0 Bft)
28.04.2013 09:45 7,2 C 86 % 1014,8 hPa 0,0 l/m 1,9 km/h (1 Bft) S 180 5,0 C 8,2 C 0,0 km/h (0 Bft)
28.04.2013 09:50 7,4 C 87 % 1014,8 hPa 0,0 l/m 0,8 km/h (0 Bft) S-SO 157 5,4 C 8,5 C 0,0 km/h (0 Bft)
28.04.2013 09:55 7,6 C 87 % 1014,8 hPa 0,0 l/m 1,3 km/h (1 Bft) S 180 5,6 C 8,8 C 4,5 km/h (1 Bft)
28.04.2013 10:00 7,8 C 86 % 1014,8 hPa 0,0 l/m 2,6 km/h (1 Bft) W-SW 247 5,6 C 8,9 C 5,8 km/h (2 Bft)
28.04.2013 10:05 8,0 C 86 % 1015,3 hPa 0,0 l/m 3,2 km/h (1 Bft) S-SW 202 5,8 C 9,1 C 2,4 km/h (1 Bft)
28.04.2013 10:10 8,6 C 85 % 1015,3 hPa 0,0 l/m 2,4 km/h (1 Bft) SO 135 6,2 C 9,8 C 4,5 km/h (1 Bft)
28.04.2013 10:15 8,4 C 85 % 1015,3 hPa 0,0 l/m 2,1 km/h (1 Bft) SO 135 6,0 C 9,9 C 3,1 km/h (1 Bft)
28.04.2013 10:20 8,3 C 85 % 1015,3 hPa 0,0 l/m 2,9 km/h (1 Bft) S 180 5,9 C 9,6 C 2,6 km/h (1 Bft)
28.04.2013 10:25 8,4 C 86 % 1015,4 hPa 0,0 l/m 2,6 km/h (1 Bft) S 180 6,2 C 9,6 C 2,7 km/h (1 Bft)
28.04.2013 10:30 8,3 C 85 % 1015,4 hPa 0,0 l/m 2,6 km/h (1 Bft) SW 225 5,9 C 9,4 C 4,0 km/h (1 Bft)
28.04.2013 10:35 8,0 C 84 % 1015,4 hPa 0,0 l/m 3,4 km/h (1 Bft) SW 225 5,5 C 9,2 C 8,0 km/h (2 Bft)
28.04.2013 10:40 7,5 C 83 % 1015,4 hPa 0,0 l/m 5,3 km/h (1 Bft) S 180 4,8 C 7,9 C 2,9 km/h (1 Bft)
28.04.2013 10:45 7,5 C 85 % 1015,8 hPa 0,0 l/m 5,3 km/h (1 Bft) S-SW 202 5,1 C 7,7 C 7,6 km/h (2 Bft)
28.04.2013 10:50 7,6 C 85 % 1015,8 hPa 0,0 l/m 4,3 km/h (1 Bft) W-SW 247 5,2 C 7,9 C 4,8 km/h (1 Bft)
28.04.2013 10:55 7,8 C 84 % 1015,8 hPa 0,0 l/m 4,5 km/h (1 Bft) S 180 5,3 C 7,9 C 5,6 km/h (1 Bft)
28.04.2013 11:00 8,0 C 83 % 1015,8 hPa 0,0 l/m 4,5 km/h (1 Bft) W-SW 247 5,3 C 8,2 C 6,1 km/h (2 Bft)
28.04.2013 11:05 7,6 C 83 % 1016,2 hPa 0,0 l/m 6,0 km/h (2 Bft) W-SW 247 4,9 C 7,5 C 8,5 km/h (2 Bft)
28.04.2013 11:10 7,3 C 83 % 1016,2 hPa 0,0 l/m 7,4 km/h (2 Bft) W-SW 247 4,6 C 5,7 C 5,1 km/h (1 Bft)
28.04.2013 11:15 7,4 C 84 % 1016,2 hPa 0,0 l/m 6,1 km/h (2 Bft) W 270 4,9 C 6,8 C 6,9 km/h (2 Bft)
28.04.2013 11:20 7,3 C 85 % 1016,2 hPa 0,0 l/m 5,0 km/h (1 Bft) S-SW 202 4,9 C 7,1 C 4,0 km/h (1 Bft)
28.04.2013 11:25 7,3 C 84 % 1016,4 hPa 0,0 l/m 4,8 km/h (1 Bft) W-SW 247 4,8 C 7,2 C 3,9 km/h (1 Bft)
28.04.2013 11:30 7,1 C 83 % 1016,4 hPa 0,0 l/m 3,9 km/h (1 Bft) S 180 4,4 C 7,6 C 5,1 km/h (1 Bft)
28.04.2013 11:35 7,2 C 84 % 1016,4 hPa 0,0 l/m 3,7 km/h (1 Bft) W 270 4,7 C 7,7 C 3,9 km/h (1 Bft)
28.04.2013 11:40 7,4 C 85 % 1016,4 hPa 0,0 l/m 3,5 km/h (1 Bft) W-SW 247 5,0 C 7,8 C 2,6 km/h (1 Bft)
28.04.2013 11:45 7,5 C 84 % 1016,5 hPa 0,0 l/m 3,4 km/h (1 Bft) S 180 5,0 C 7,9 C 7,9 km/h (2 Bft)
28.04.2013 11:50 7,5 C 84 % 1016,5 hPa 0,0 l/m 3,2 km/h (1 Bft) O-SO 112 5,0 C 8,0 C 3,1 km/h (1 Bft)
28.04.2013 11:55 7,9 C 85 % 1016,5 hPa 0,0 l/m 3,4 km/h (1 Bft) S-SO 157 5,5 C 8,2 C 3,1 km/h (1 Bft)
28.04.2013 12:00 7,7 C 84 % 1016,5 hPa 0,0 l/m 2,7 km/h (1 Bft) S 180 5,2 C 8,4 C 2,7 km/h (1 Bft)
28.04.2013 12:05 7,9 C 85 % 1016,7 hPa 0,0 l/m 2,7 km/h (1 Bft) W 270 5,5 C 8,5 C 2,4 km/h (1 Bft)
28.04.2013 12:10 7,8 C 84 % 1016,7 hPa 0,0 l/m 2,7 km/h (1 Bft) SW 225 5,3 C 8,6 C 0,0 km/h (0 Bft)
28.04.2013 12:15 7,9 C 85 % 1016,7 hPa 0,0 l/m 2,7 km/h (1 Bft) S 180 5,5 C 8,8 C 5,5 km/h (1 Bft)
28.04.2013 12:20 8,0 C 85 % 1016,7 hPa 0,0 l/m 2,3 km/h (1 Bft) W-SW 247 5,6 C 8,8 C 2,3 km/h (1 Bft)
28.04.2013 12:25 7,8 C 84 % 1016,1 hPa 0,0 l/m 2,3 km/h (1 Bft) W-SW 247 5,3 C 8,8 C 2,9 km/h (1 Bft)
28.04.2013 12:30 8,1 C 85 % 1016,1 hPa 0,0 l/m 1,9 km/h (1 Bft) W-NW 292 5,7 C 8,9 C 2,9 km/h (1 Bft)
28.04.2013 12:35 8,1 C 84 % 1016,1 hPa 0,0 l/m 2,7 km/h (1 Bft) W-SW 247 5,6 C 8,8 C 3,2 km/h (1 Bft)
28.04.2013 12:40 8,2 C 84 % 1016,1 hPa 0,0 l/m 3,1 km/h (1 Bft) S 180 5,7 C 8,7 C 2,7 km/h (1 Bft)
28.04.2013 12:45 8,0 C 84 % 1016,6 hPa 0,0 l/m 2,6 km/h (1 Bft) W 270 5,5 C 8,7 C 3,4 km/h (1 Bft)
28.04.2013 12:50 8,1 C 84 % 1016,6 hPa 0,0 l/m 1,8 km/h (1 Bft) SW 225 5,6 C 8,8 C 3,4 km/h (1 Bft)
28.04.2013 12:55 8,2 C 85 % 1016,6 hPa 0,0 l/m 1,4 km/h (1 Bft) W 270 5,8 C 8,8 C 3,4 km/h (1 Bft)
28.04.2013 13:00 8,2 C 83 % 1016,6 hPa 0,0 l/m 1,8 km/h (1 Bft) W-SW 247 5,5 C 9,0 C 2,7 km/h (1 Bft)
28.04.2013 13:05 8,1 C 83 % 1016,4 hPa 0,0 l/m 2,1 km/h (1 Bft) S-SO 157 5,4 C 9,1 C 0,0 km/h (0 Bft)
28.04.2013 13:10 8,4 C 84 % 1016,4 hPa 0,0 l/m 1,6 km/h (1 Bft) W-SW 247 5,9 C 9,3 C 2,7 km/h (1 Bft)
28.04.2013 13:15 8,4 C 84 % 1016,4 hPa 0,0 l/m 1,3 km/h (1 Bft) S-SO 157 5,9 C 9,3 C 0,0 km/h (0 Bft)
28.04.2013 13:20 8,4 C 83 % 1016,4 hPa 0,0 l/m 1,6 km/h (1 Bft) W 270 5,7 C 9,4 C 3,5 km/h (1 Bft)
28.04.2013 13:25 8,3 C 82 % 1016,5 hPa 0,0 l/m 2,4 km/h (1 Bft) W-SW 247 5,4 C 9,1 C 3,7 km/h (1 Bft)
28.04.2013 13:30 8,1 C 80 % 1016,5 hPa 0,0 l/m 3,9 km/h (1 Bft) W-NW 292 4,9 C 8,9 C 5,0 km/h (1 Bft)
28.04.2013 13:35 8,0 C 80 % 1016,5 hPa 0,0 l/m 4,5 km/h (1 Bft) W-NW 292 4,8 C 8,3 C 5,3 km/h (1 Bft)
28.04.2013 13:40 8,2 C 81 % 1016,5 hPa 0,0 l/m 3,9 km/h (1 Bft) S-SW 202 5,1 C 8,4 C 2,3 km/h (1 Bft)
28.04.2013 13:45 8,2 C 81 % 1016,7 hPa 0,0 l/m 2,9 km/h (1 Bft) SW 225 5,1 C 8,6 C 2,9 km/h (1 Bft)
28.04.2013 13:50 8,3 C 80 % 1016,7 hPa 0,0 l/m 2,7 km/h (1 Bft) S 180 5,1 C 8,8 C 3,1 km/h (1 Bft)
28.04.2013 13:55 8,2 C 81 % 1016,7 hPa 0,0 l/m 3,2 km/h (1 Bft) W 270 5,1 C 8,8 C 1,9 km/h (1 Bft)
28.04.2013 14:00 8,4 C 81 % 1016,7 hPa 0,0 l/m 2,9 km/h (1 Bft) S-SW 202 5,3 C 8,8 C 2,4 km/h (1 Bft)
28.04.2013 14:05 8,4 C 81 % 1016,8 hPa 0,0 l/m 2,3 km/h (1 Bft) W 270 5,3 C 8,9 C 2,1 km/h (1 Bft)
28.04.2013 14:10 8,6 C 81 % 1016,8 hPa 0,0 l/m 2,4 km/h (1 Bft) W 270 5,5 C 8,9 C 4,2 km/h (1 Bft)
28.04.2013 14:15 8,6 C 81 % 1016,8 hPa 0,0 l/m 2,3 km/h (1 Bft) W-NW 292 5,5 C 9,0 C 0,0 km/h (0 Bft)
28.04.2013 14:20 8,7 C 80 % 1016,8 hPa 0,0 l/m 1,4 km/h (1 Bft) W-SW 247 5,4 C 9,3 C 0,0 km/h (0 Bft)
28.04.2013 14:25 8,8 C 80 % 1016,7 hPa 0,0 l/m 1,3 km/h (1 Bft) W 270 5,5 C 9,4 C 1,8 km/h (1 Bft)
28.04.2013 14:30 8,7 C 79 % 1016,7 hPa 0,0 l/m 1,8 km/h (1 Bft) S-SW 202 5,3 C 9,5 C 3,1 km/h (1 Bft)
28.04.2013 14:35 8,8 C 79 % 1016,7 hPa 0,0 l/m 2,3 km/h (1 Bft) S-SW 202 5,4 C 9,4 C 2,3 km/h (1 Bft)
28.04.2013 14:40 8,7 C 79 % 1016,7 hPa 0,0 l/m 2,3 km/h (1 Bft) W-NW 292 5,3 C 9,4 C 0,0 km/h (0 Bft)
28.04.2013 14:45 8,6 C 78 % 1016,8 hPa 0,0 l/m 2,1 km/h (1 Bft) W-NW 292 5,0 C 9,4 C 2,6 km/h (1 Bft)
28.04.2013 14:50 8,8 C 78 % 1016,8 hPa 0,0 l/m 2,1 km/h (1 Bft) W-NW 292 5,2 C 9,4 C 5,8 km/h (2 Bft)
28.04.2013 14:55 8,7 C 78 % 1016,8 hPa 0,0 l/m 2,6 km/h (1 Bft) W-SW 247 5,1 C 9,2 C 3,5 km/h (1 Bft)
28.04.2013 15:00 8,8 C 78 % 1016,8 hPa 0,0 l/m 2,6 km/h (1 Bft) S 180 5,2 C 9,3 C 3,4 km/h (1 Bft)
28.04.2013 15:05 8,7 C 78 % 1016,9 hPa 0,0 l/m 2,3 km/h (1 Bft) W 270 5,1 C 9,3 C 3,9 km/h (1 Bft)
28.04.2013 15:10 8,8 C 78 % 1016,9 hPa 0,0 l/m 2,3 km/h (1 Bft) W-NW 292 5,2 C 9,2 C 1,8 km/h (1 Bft)
28.04.2013 15:15 8,9 C 78 % 1016,9 hPa 0,0 l/m 2,1 km/h (1 Bft) W-NW 292 5,3 C 9,3 C 2,3 km/h (1 Bft)
28.04.2013 15:20 8,7 C 77 % 1016,9 hPa 0,0 l/m 2,1 km/h (1 Bft) W-NW 292 4,9 C 9,4 C 5,0 km/h (1 Bft)
28.04.2013 15:25 8,6 C 77 % 1016,9 hPa 0,0 l/m 2,9 km/h (1 Bft) W-NW 292 4,8 C 9,2 C 4,2 km/h (1 Bft)
28.04.2013 15:30 8,6 C 76 % 1016,9 hPa 0,0 l/m 3,7 km/h (1 Bft) N 360 4,6 C 9,1 C 0,0 km/h (0 Bft)
28.04.2013 15:35 8,8 C 77 % 1016,9 hPa 0,0 l/m 2,4 km/h (1 Bft) SO 135 5,0 C 9,2 C 0,0 km/h (0 Bft)
28.04.2013 15:40 8,9 C 76 % 1016,9 hPa 0,0 l/m 0,6 km/h (0 Bft) N-NW 337 4,9 C 9,6 C 5,5 km/h (1 Bft)
28.04.2013 15:45 8,8 C 76 % 1016,8 hPa 0,0 l/m 1,6 km/h (1 Bft) W-SW 247 4,8 C 9,6 C 1,9 km/h (1 Bft)
28.04.2013 15:50 8,9 C 75 % 1016,8 hPa 0,0 l/m 2,6 km/h (1 Bft) W 270 4,7 C 9,5 C 5,5 km/h (1 Bft)
28.04.2013 15:55 8,9 C 76 % 1016,8 hPa 0,0 l/m 1,9 km/h (1 Bft) SW 225 4,9 C 9,5 C 0,0 km/h (0 Bft)
28.04.2013 16:00 9,0 C 75 % 1016,8 hPa 0,0 l/m 1,1 km/h (1 Bft) S-SW 202 4,8 C 9,7 C 0,0 km/h (0 Bft)
28.04.2013 16:05 8,8 C 75 % 1016,9 hPa 0,0 l/m 0,8 km/h (0 Bft) N 360 4,6 C 9,7 C 4,3 km/h (1 Bft)
28.04.2013 16:10 8,8 C 74 % 1016,9 hPa 0,0 l/m 2,1 km/h (1 Bft) S-SO 157 4,4 C 9,7 C 2,6 km/h (1 Bft)
28.04.2013 16:15 9,0 C 74 % 1016,9 hPa 0,0 l/m 2,6 km/h (1 Bft) O-SO 112 4,6 C 9,8 C 0,0 km/h (0 Bft)
28.04.2013 16:20 9,4 C 74 % 1016,9 hPa 0,0 l/m 1,6 km/h (1 Bft) N 360 5,0 C 10,0 C 4,2 km/h (1 Bft)
28.04.2013 16:25 9,2 C 74 % 1016,7 hPa 0,0 l/m 1,9 km/h (1 Bft) N-NW 337 4,8 C 10,1 C 2,9 km/h (1 Bft)
28.04.2013 16:30 9,1 C 73 % 1016,7 hPa 0,0 l/m 3,5 km/h (1 Bft) N-NW 337 4,5 C 10,1 C 4,3 km/h (1 Bft)
28.04.2013 16:35 9,2 C 74 % 1016,7 hPa 0,0 l/m 3,5 km/h (1 Bft) NO 45 4,8 C 10,0 C 5,5 km/h (1 Bft)
28.04.2013 16:40 9,1 C 74 % 1016,7 hPa 0,0 l/m 4,0 km/h (1 Bft) N-NW 337 4,7 C 9,9 C 6,3 km/h (2 Bft)
28.04.2013 16:45 8,8 C 73 % 1016,9 hPa 0,0 l/m 4,8 km/h (1 Bft) N 360 4,2 C 9,6 C 8,0 km/h (2 Bft)
28.04.2013 16:50 8,7 C 74 % 1016,9 hPa 0,0 l/m 5,3 km/h (1 Bft) N-NW 337 4,3 C 8,9 C 8,9 km/h (2 Bft)
28.04.2013 16:55 8,8 C 75 % 1016,9 hPa 0,0 l/m 5,0 km/h (1 Bft) W 270 4,6 C 8,9 C 6,1 km/h (2 Bft)
28.04.2013 17:00 9,1 C 75 % 1016,9 hPa 0,0 l/m 4,0 km/h (1 Bft) N 360 4,9 C 9,4 C 5,5 km/h (1 Bft)
28.04.2013 17:05 9,0 C 74 % 1016,8 hPa 0,0 l/m 3,4 km/h (1 Bft) NO 45 4,6 C 9,5 C 4,2 km/h (1 Bft)
28.04.2013 17:10 8,8 C 74 % 1016,8 hPa 0,0 l/m 3,1 km/h (1 Bft) N-NO 22 4,4 C 9,4 C 2,1 km/h (1 Bft)
28.04.2013 17:15 8,9 C 75 % 1016,8 hPa 0,0 l/m 3,1 km/h (1 Bft) N-NW 337 4,7 C 9,4 C 5,1 km/h (1 Bft)
28.04.2013 17:20 8,8 C 75 % 1016,8 hPa 0,0 l/m 3,5 km/h (1 Bft) W-NW 292 4,6 C 9,2 C 5,0 km/h (1 Bft)
28.04.2013 17:25 8,7 C 75 % 1016,7 hPa 0,0 l/m 4,2 km/h (1 Bft) W-NW 292 4,5 C 9,2 C 5,5 km/h (1 Bft)
28.04.2013 17:30 8,6 C 75 % 1016,7 hPa 0,0 l/m 3,7 km/h (1 Bft) SO 135 4,4 C 9,0 C 2,4 km/h (1 Bft)
28.04.2013 17:35 8,6 C 76 % 1016,7 hPa 0,0 l/m 3,5 km/h (1 Bft) N-NO 22 4,6 C 9,1 C 5,5 km/h (1 Bft)
28.04.2013 17:40 8,6 C 76 % 1016,7 hPa 0,0 l/m 3,2 km/h (1 Bft) N 360 4,6 C 9,0 C 5,0 km/h (1 Bft)
28.04.2013 17:45 8,6 C 76 % 1016,7 hPa 0,0 l/m 3,9 km/h (1 Bft) W 270 4,6 C 9,0 C 2,9 km/h (1 Bft)
28.04.2013 17:50 8,5 C 76 % 1016,7 hPa 0,0 l/m 4,0 km/h (1 Bft) N-NW 337 4,5 C 8,8 C 5,8 km/h (2 Bft)
28.04.2013 17:55 8,4 C 76 % 1016,7 hPa 0,0 l/m 4,0 km/h (1 Bft) N-NO 22 4,4 C 8,7 C 3,5 km/h (1 Bft)
28.04.2013 18:00 8,4 C 76 % 1016,7 hPa 0,0 l/m 4,7 km/h (1 Bft) W 270 4,4 C 8,4 C 8,4 km/h (2 Bft)
28.04.2013 18:05 8,4 C 76 % 1016,6 hPa 0,0 l/m 4,5 km/h (1 Bft) O-SO 112 4,4 C 8,3 C 0,0 km/h (0 Bft)
28.04.2013 18:10 8,4 C 77 % 1016,6 hPa 0,0 l/m 2,9 km/h (1 Bft) S 180 4,6 C 8,6 C 0,0 km/h (0 Bft)
28.04.2013 18:15 8,4 C 77 % 1016,6 hPa 0,0 l/m 1,9 km/h (1 Bft) N 360 4,6 C 8,7 C 5,8 km/h (2 Bft)
28.04.2013 18:20 8,3 C 76 % 1016,6 hPa 0,0 l/m 2,6 km/h (1 Bft) W-SW 247 4,3 C 8,6 C 3,2 km/h (1 Bft)
28.04.2013 18:25 8,4 C 77 % 1016,5 hPa 0,0 l/m 3,1 km/h (1 Bft) W 270 4,6 C 8,6 C 3,1 km/h (1 Bft)
28.04.2013 18:30 8,4 C 77 % 1016,5 hPa 0,0 l/m 2,7 km/h (1 Bft) W-NW 292 4,6 C 8,6 C 3,4 km/h (1 Bft)
28.04.2013 18:35 8,3 C 77 % 1016,5 hPa 0,0 l/m 3,4 km/h (1 Bft) W 270 4,5 C 8,5 C 4,0 km/h (1 Bft)
28.04.2013 18:40 8,3 C 77 % 1016,5 hPa 0,0 l/m 3,4 km/h (1 Bft) N 360 4,5 C 8,5 C 3,4 km/h (1 Bft)
28.04.2013 18:45 8,2 C 77 % 1016,6 hPa 0,0 l/m 3,1 km/h (1 Bft) N-NW 337 4,4 C 8,5 C 3,4 km/h (1 Bft)
28.04.2013 18:50 8,3 C 78 % 1016,6 hPa 0,0 l/m 3,1 km/h (1 Bft) N-NW 337 4,7 C 8,5 C 5,1 km/h (1 Bft)
28.04.2013 18:55 8,2 C 78 % 1016,6 hPa 0,0 l/m 3,2 km/h (1 Bft) N-NW 337 4,6 C 8,5 C 5,5 km/h (1 Bft)
28.04.2013 19:00 8,2 C 78 % 1016,6 hPa 0,0 l/m 3,7 km/h (1 Bft) N-NW 337 4,6 C 8,4 C 3,9 km/h (1 Bft)
28.04.2013 19:05 8,1 C 78 % 1016,6 hPa 0,0 l/m 4,2 km/h (1 Bft) N 360 4,5 C 8,1 C 5,3 km/h (1 Bft)
28.04.2013 19:10 8,1 C 78 % 1016,6 hPa 0,0 l/m 3,7 km/h (1 Bft) O-SO 112 4,5 C 8,2 C 0,0 km/h (0 Bft)
28.04.2013 19:15 8,0 C 78 % 1016,6 hPa 0,0 l/m 3,5 km/h (1 Bft) N 360 4,4 C 8,2 C 4,5 km/h (1 Bft)
28.04.2013 19:20 8,0 C 79 % 1016,6 hPa 0,0 l/m 3,1 km/h (1 Bft) NW 315 4,6 C 8,2 C 4,0 km/h (1 Bft)
28.04.2013 19:25 8,0 C 79 % 1016,3 hPa 0,0 l/m 3,2 km/h (1 Bft) N 360 4,6 C 8,2 C 4,5 km/h (1 Bft)
28.04.2013 19:30 7,9 C 79 % 1016,3 hPa 0,0 l/m 3,4 km/h (1 Bft) N-NO 22 4,5 C 8,1 C 7,1 km/h (2 Bft)
28.04.2013 19:35 7,9 C 79 % 1016,3 hPa 0,0 l/m 3,7 km/h (1 Bft) N-NW 337 4,5 C 8,0 C 6,1 km/h (2 Bft)
28.04.2013 19:40 7,8 C 80 % 1016,3 hPa 0,0 l/m 4,0 km/h (1 Bft) N-NO 22 4,6 C 7,7 C 6,0 km/h (2 Bft)
28.04.2013 19:45 7,8 C 80 % 1016,2 hPa 0,0 l/m 4,8 km/h (1 Bft) W-NW 292 4,6 C 7,4 C 4,5 km/h (1 Bft)
28.04.2013 19:50 7,8 C 80 % 1016,2 hPa 0,0 l/m 4,0 km/h (1 Bft) N 360 4,6 C 7,7 C 6,4 km/h (2 Bft)
28.04.2013 19:55 7,7 C 80 % 1016,2 hPa 0,0 l/m 3,2 km/h (1 Bft) N 360 4,5 C 7,8 C 2,4 km/h (1 Bft)
28.04.2013 20:00 7,7 C 80 % 1016,2 hPa 0,0 l/m 3,1 km/h (1 Bft) NO 45 4,5 C 7,8 C 3,4 km/h (1 Bft)
28.04.2013 20:05 7,7 C 81 % 1016,1 hPa 0,0 l/m 2,9 km/h (1 Bft) N-NW 337 4,7 C 7,7 C 3,4 km/h (1 Bft)
28.04.2013 20:10 7,6 C 81 % 1016,1 hPa 0,0 l/m 2,9 km/h (1 Bft) W-NW 292 4,6 C 7,7 C 2,3 km/h (1 Bft)
28.04.2013 20:15 7,6 C 81 % 1016,1 hPa 0,0 l/m 2,4 km/h (1 Bft) NO 45 4,6 C 7,6 C 3,5 km/h (1 Bft)
28.04.2013 20:20 7,6 C 82 % 1016,1 hPa 0,0 l/m 1,9 km/h (1 Bft) NW 315 4,7 C 7,6 C 2,4 km/h (1 Bft)
28.04.2013 20:25 7,5 C 82 % 1015,4 hPa 0,0 l/m 1,9 km/h (1 Bft) N-NO 22 4,6 C 7,6 C 0,0 km/h (0 Bft)
28.04.2013 20:30 7,4 C 82 % 1015,4 hPa 0,0 l/m 1,9 km/h (1 Bft) N-NW 337 4,5 C 7,5 C 5,1 km/h (1 Bft)
28.04.2013 20:35 7,4 C 82 % 1015,4 hPa 0,0 l/m 2,1 km/h (1 Bft) W-NW 292 4,5 C 7,4 C 3,1 km/h (1 Bft)
28.04.2013 20:40 7,4 C 82 % 1015,4 hPa 0,0 l/m 1,4 km/h (1 Bft) W 270 4,5 C 7,3 C 1,8 km/h (1 Bft)
28.04.2013 20:45 7,4 C 82 % 1015,4 hPa 0,0 l/m 1,3 km/h (1 Bft) N-NW 337 4,5 C 7,3 C 3,4 km/h (1 Bft)
28.04.2013 20:50 7,3 C 82 % 1015,4 hPa 0,0 l/m 1,6 km/h (1 Bft) N 360 4,4 C 7,3 C 1,9 km/h (1 Bft)
28.04.2013 20:55 7,3 C 83 % 1015,4 hPa 0,0 l/m 1,8 km/h (1 Bft) N-NW 337 4,6 C 7,3 C 0,0 km/h (0 Bft)
28.04.2013 21:00 7,3 C 83 % 1015,4 hPa 0,0 l/m 1,3 km/h (1 Bft) N-NW 337 4,6 C 7,3 C 2,4 km/h (1 Bft)
28.04.2013 21:05 7,3 C 83 % 1015,8 hPa 0,0 l/m 0,5 km/h (0 Bft) N-NO 22 4,6 C 7,3 C 0,0 km/h (0 Bft)
28.04.2013 21:10 7,2 C 83 % 1015,8 hPa 0,0 l/m 0,2 km/h (0 Bft) N 360 4,5 C 7,2 C 1,9 km/h (1 Bft)
28.04.2013 21:15 7,2 C 83 % 1015,8 hPa 0,0 l/m 0,5 km/h (0 Bft) N 360 4,5 C 7,2 C 1,9 km/h (1 Bft)
28.04.2013 21:20 7,2 C 84 % 1015,8 hPa 0,0 l/m 1,3 km/h (1 Bft) N 360 4,7 C 7,2 C 3,5 km/h (1 Bft)
28.04.2013 21:25 7,1 C 84 % 1015,7 hPa 0,0 l/m 1,8 km/h (1 Bft) N 360 4,6 C 7,1 C 3,5 km/h (1 Bft)
28.04.2013 21:30 7,0 C 84 % 1015,7 hPa 0,0 l/m 2,3 km/h (1 Bft) N 360 4,5 C 7,0 C 7,6 km/h (2 Bft)
28.04.2013 21:35 7,0 C 84 % 1015,7 hPa 0,0 l/m 2,6 km/h (1 Bft) N 360 4,5 C 7,0 C 3,4 km/h (1 Bft)
28.04.2013 21:40 6,8 C 84 % 1015,7 hPa 0,0 l/m 2,1 km/h (1 Bft) NO 45 4,3 C 6,9 C 2,1 km/h (1 Bft)
28.04.2013 21:45 6,8 C 84 % 1015,6 hPa 0,0 l/m 1,4 km/h (1 Bft) O-NO 67 4,3 C 6,7 C 1,9 km/h (1 Bft)
28.04.2013 21:50 6,8 C 85 % 1015,6 hPa 0,0 l/m 1,6 km/h (1 Bft) SW 225 4,5 C 6,7 C 1,8 km/h (1 Bft)
28.04.2013 21:55 6,7 C 85 % 1015,6 hPa 0,0 l/m 1,1 km/h (1 Bft) O 90 4,4 C 6,7 C 0,0 km/h (0 Bft)
28.04.2013 22:00 6,6 C 85 % 1015,6 hPa 0,0 l/m 0,5 km/h (0 Bft) N 360 4,3 C 6,5 C 2,4 km/h (1 Bft)
28.04.2013 22:05 6,5 C 85 % 1015,6 hPa 0,0 l/m 0,3 km/h (0 Bft) O 90 4,2 C 6,4 C 0,0 km/h (0 Bft)
28.04.2013 22:10 6,3 C 85 % 1015,6 hPa 0,0 l/m 0,3 km/h (0 Bft) O 90 4,0 C 6,2 C 1,9 km/h (1 Bft)
28.04.2013 22:15 6,3 C 85 % 1015,6 hPa 0,0 l/m 0,5 km/h (0 Bft) NO 45 4,0 C 6,1 C 2,3 km/h (1 Bft)
28.04.2013 22:20 6,2 C 86 % 1015,6 hPa 0,0 l/m 0,6 km/h (0 Bft) NO 45 4,0 C 6,0 C 0,0 km/h (0 Bft)
28.04.2013 22:25 6,3 C 86 % 1015,6 hPa 0,0 l/m 0,6 km/h (0 Bft) O-NO 67 4,1 C 6,0 C 1,8 km/h (1 Bft)
28.04.2013 22:30 6,4 C 86 % 1015,6 hPa 0,0 l/m 0,8 km/h (0 Bft) O-NO 67 4,2 C 6,0 C 2,4 km/h (1 Bft)
28.04.2013 22:35 6,4 C 86 % 1015,6 hPa 0,0 l/m 1,4 km/h (1 Bft) NO 45 4,2 C 6,0 C 2,1 km/h (1 Bft)
28.04.2013 22:40 6,4 C 86 % 1015,6 hPa 0,0 l/m 1,9 km/h (1 Bft) NO 45 4,2 C 6,0 C 2,7 km/h (1 Bft)
28.04.2013 22:45 6,3 C 86 % 1015,7 hPa 0,0 l/m 2,3 km/h (1 Bft) O 90 4,1 C 6,0 C 3,5 km/h (1 Bft)
28.04.2013 22:50 6,2 C 86 % 1015,7 hPa 0,0 l/m 2,9 km/h (1 Bft) N 360 4,0 C 6,0 C 5,1 km/h (1 Bft)
28.04.2013 22:55 6,1 C 86 % 1015,7 hPa 0,0 l/m 2,3 km/h (1 Bft) O-NO 67 3,9 C 6,0 C 4,3 km/h (1 Bft)
28.04.2013 23:00 6,2 C 87 % 1015,7 hPa 0,0 l/m 1,6 km/h (1 Bft) NO 45 4,2 C 6,0 C 2,3 km/h (1 Bft)
28.04.2013 23:05 6,1 C 87 % 1015,5 hPa 0,0 l/m 1,4 km/h (1 Bft) O-SO 112 4,1 C 6,0 C 0,0 km/h (0 Bft)
28.04.2013 23:10 6,1 C 87 % 1015,5 hPa 0,0 l/m 0,6 km/h (0 Bft) O-NO 67 4,1 C 5,9 C 1,8 km/h (1 Bft)
28.04.2013 23:15 6,1 C 87 % 1015,5 hPa 0,0 l/m 0,3 km/h (0 Bft) O-SO 112 4,1 C 5,8 C 0,0 km/h (0 Bft)
28.04.2013 23:20 6,1 C 87 % 1015,5 hPa 0,0 l/m 0,6 km/h (0 Bft) O-NO 67 4,1 C 5,8 C 3,5 km/h (1 Bft)
28.04.2013 23:25 6,0 C 87 % 1015,5 hPa 0,0 l/m 1,0 km/h (0 Bft) NO 45 4,0 C 5,8 C 2,3 km/h (1 Bft)
28.04.2013 23:30 5,9 C 88 % 1015,5 hPa 0,0 l/m 1,3 km/h (1 Bft) NO 45 4,1 C 5,8 C 0,0 km/h (0 Bft)
28.04.2013 23:35 5,8 C 88 % 1015,5 hPa 0,0 l/m 0,6 km/h (0 Bft) O-NO 67 4,0 C 5,7 C 2,1 km/h (1 Bft)
28.04.2013 23:40 5,8 C 88 % 1015,5 hPa 0,0 l/m 0,6 km/h (0 Bft) O-NO 67 4,0 C 5,6 C 0,0 km/h (0 Bft)
28.04.2013 23:45 5,9 C 88 % 1015,6 hPa 0,0 l/m 1,4 km/h (1 Bft) O 90 4,1 C 5,5 C 1,8 km/h (1 Bft)
28.04.2013 23:50 5,9 C 88 % 1015,6 hPa 0,0 l/m 1,0 km/h (0 Bft) S 180 4,1 C 5,6 C 0,0 km/h (0 Bft)
28.04.2013 23:55 5,9 C 88 % 1015,6 hPa 0,0 l/m 0,6 km/h (0 Bft) S 180 4,1 C 5,7 C 0,0 km/h (0 Bft)
_ Min-Zeit 06:20 16:45 00:00 - 06:45 - - 06:20 01:45 23:55
Minimum _ 4,5 C 73 % 1008,1 hPa - 0,0 km/h (0 Bft) - - 3,9 C 2,5 C 0,0 km/h (0 Bft)
_ Max-Zeit 16:20 08:05 17:00 02:15 00:50 - - 10:10 16:30 00:50
Maximum _ 9,4 C 96 % 1016,9 hPa 0,7 l/m 7,7 km/h
S (2 Bft)
- - 6,2 C 10,1 C 14,0 km/h
S (3 Bft)
Durchschnitt _ 6,8 C 87 % 1014,2 hPa #0,7 l/m 2,8 km/h (1 Bft) S - 4,7 C 6,8 C 3,5 km/h (1 Bft)